TimeEST,TemperatureF,Dew PointF,Humidity,Sea Level PressureIn,VisibilityMPH,Wind Direction,Wind SpeedMPH,Gust SpeedMPH,PrecipitationIn,Events,Conditions,WindDirDegrees,DateUTC
12:05 AM,28.4,26.6,93,29.93,7.0,NW,5.8,-,N/A,,Overcast,320,2013-02-25 05:05:00
12:51 AM,28.9,27.0,92,29.99,7.0,NW,5.8,-,N/A,,Overcast,310,2013-02-25 05:51:00
1:51 AM,28.4,26.6,93,29.96,8.0,WNW,6.9,-,N/A,,Overcast,300,2013-02-25 06:51:00
2:51 AM,28.9,27.0,92,30.03,8.0,NW,5.8,-,N/A,,Overcast,320,2013-02-25 07:51:00
3:13 AM,28.4,26.6,93,29.97,9.0,WNW,6.9,-,N/A,,Overcast,290,2013-02-25 08:13:00
3:47 AM,28.4,26.6,93,29.98,8.0,NNW,3.5,-,N/A,,Overcast,340,2013-02-25 08:47:00
3:51 AM,28.9,27.0,92,30.03,8.0,Calm,Calm,-,N/A,,Overcast,0,2013-02-25 08:51:00
4:51 AM,28.4,26.6,93,30.00,8.0,Calm,Calm,-,N/A,,Overcast,0,2013-02-25 09:51:00
5:20 AM,28.4,26.6,93,30.01,9.0,NW,3.5,-,N/A,,Overcast,320,2013-02-25 10:20:00
5:51 AM,28.9,27.0,92,30.07,9.0,WNW,4.6,-,N/A,,Overcast,300,2013-02-25 10:51:00
6:21 AM,28.4,26.6,93,30.03,8.0,WNW,4.6,-,N/A,,Overcast,300,2013-02-25 11:21:00
6:51 AM,28.9,27.0,92,30.09,6.0,WNW,4.6,-,N/A,,Overcast,290,2013-02-25 11:51:00
7:01 AM,28.4,28.4,100,30.05,5.0,WNW,4.6,-,N/A,,Overcast,300,2013-02-25 12:01:00
7:35 AM,28.4,28.4,100,30.06,5.0,NW,5.8,-,N/A,,Overcast,310,2013-02-25 12:35:00
7:51 AM,28.9,28.0,96,30.12,5.0,WNW,5.8,-,N/A,,Overcast,300,2013-02-25 12:51:00
8:51 AM,30.0,28.0,92,30.13,5.0,NNW,5.8,-,N/A,,Overcast,340,2013-02-25 13:51:00
9:51 AM,30.0,28.9,96,30.15,5.0,NNW,4.6,-,N/A,,Overcast,340,2013-02-25 14:51:00
10:40 AM,30.2,28.4,93,30.10,6.0,NNW,3.5,-,N/A,,Overcast,330,2013-02-25 15:40:00
10:51 AM,30.0,28.9,96,30.16,6.0,Calm,Calm,-,N/A,,Overcast,0,2013-02-25 15:51:00
11:29 AM,30.2,28.4,93,30.11,6.0,Calm,Calm,-,N/A,,Overcast,0,2013-02-25 16:29:00
11:51 AM,30.9,28.9,92,30.16,6.0,NNW,4.6,-,N/A,,Overcast,340,2013-02-25 16:51:00
12:51 PM,30.9,28.9,92,30.17,7.0,NW,6.9,-,N/A,,Overcast,320,2013-02-25 17:51:00
1:31 PM,30.2,28.4,93,30.12,7.0,NNW,5.8,-,N/A,,Overcast,330,2013-02-25 18:31:00
1:51 PM,32.0,28.9,88,30.17,7.0,NNW,5.8,-,N/A,,Overcast,330,2013-02-25 18:51:00
2:15 PM,32.0,28.4,87,30.13,8.0,NW,5.8,-,N/A,,Overcast,320,2013-02-25 19:15:00
2:51 PM,32.0,28.9,88,30.20,8.0,WNW,4.6,-,N/A,,Overcast,300,2013-02-25 19:51:00
3:15 PM,32.0,28.4,87,30.15,5.0,WNW,4.6,-,0.00,Snow,Light Snow,290,2013-02-25 20:15:00
3:30 PM,32.0,28.4,87,30.15,2.5,NW,3.5,-,0.00,Snow,Light Snow,320,2013-02-25 20:30:00
3:40 PM,32.0,28.4,87,30.15,2.5,NW,3.5,-,0.00,Snow,Light Snow,310,2013-02-25 20:40:00
3:51 PM,32.0,30.0,92,30.21,4.0,Calm,Calm,-,0.00,Snow,Light Snow,0,2013-02-25 20:51:00
4:33 PM,32.0,28.4,87,30.17,4.0,NW,3.5,-,0.00,Snow,Light Snow,320,2013-02-25 21:33:00
4:51 PM,32.0,28.9,88,30.22,4.0,Calm,Calm,-,0.00,Snow,Light Snow,0,2013-02-25 21:51:00
5:51 PM,30.9,28.9,92,30.23,8.0,Calm,Calm,-,0.00,,Overcast,0,2013-02-25 22:51:00
6:51 PM,28.9,28.0,96,30.25,6.0,Calm,Calm,-,N/A,,Overcast,0,2013-02-25 23:51:00
7:51 PM,28.9,28.0,96,30.26,7.0,Calm,Calm,-,N/A,,Overcast,0,2013-02-26 00:51:00
8:40 PM,28.4,28.4,100,30.21,5.0,Calm,Calm,-,N/A,,Overcast,0,2013-02-26 01:40:00
8:51 PM,28.0,28.0,100,30.27,5.0,Calm,Calm,-,N/A,,Overcast,0,2013-02-26 01:51:00
9:10 PM,28.4,28.4,100,30.22,5.0,Calm,Calm,-,N/A,,Overcast,0,2013-02-26 02:10:00
9:30 PM,28.4,28.4,100,30.22,4.0,Calm,Calm,-,0.00,,Overcast,0,2013-02-26 02:30:00
9:51 PM,30.0,28.9,96,30.27,5.0,Calm,Calm,-,0.00,,Overcast,0,2013-02-26 02:51:00
10:04 PM,28.4,28.4,100,30.22,5.0,Calm,Calm,-,N/A,,Overcast,0,2013-02-26 03:04:00
10:51 PM,30.0,28.9,96,30.28,5.0,Calm,Calm,-,N/A,,Overcast,0,2013-02-26 03:51:00
11:42 PM,28.4,28.4,100,30.23,5.0,Calm,Calm,-,N/A,,Overcast,0,2013-02-26 04:42:00
11:51 PM,28.9,28.9,100,30.28,5.0,Calm,Calm,-,N/A,,Overcast,0,2013-02-26 04:51:00